Home   Weather   Brockton   Past weeks

Flag for USA Past Weather in Brockton, Massachusetts, USA — Yesterday and Last 2 Weeks

Now
68 °F

Sunny.


Feels Like: 68 °F
Forecast: 42 / 67 °F
Wind: N/A

Location: Taunton Municipal Airport

Current Time: Sep 26, 2016 at 4:45:47 PM

Latest Report: Sep 26, 2016 at 3:52 PM


Visibility: 10 mi

Pressure: 30.11 "Hg

Humidity: 33%

Dew Point: 38 °F

Location of BrocktonLocation

Past Weather in Brockton — Graph

°F

Brockton Temperature Yesterday

Maximum temperature yesterday: 67 °F (at 2:52 PM)
Minimum temperature yesterday: 35 °F (at 6:52 AM)
Average temperature yesterday: 50 °F

High & Low Weather Summary for the Past Weeks

 TemperatureHumidityPressure
High87 °F (Sep 14, 1:52 PM)97% (Sep 12, 2:52 AM)30.37 "Hg (Sep 12, 2:52 AM)
Low31 °F (Sep 26, 7:01 AM)26% (Sep 21, 3:52 PM)29.91 "Hg (Sep 14, 4:52 PM)
Average63 °F74%30.13 "Hg
* Reported Sep 11 2:52 PM — Sep 26 2:52 PM, Brockton, Weather by CustomWeather, © 2016

Note: Actual official high and low records may vary slightly from our data, if they occured in-between our weather recording intervals... More about our weather records

Advertising

Brockton Weather History for the Previous 24 Hours

Scroll right to see more
 ConditionsComfort  
Time TempWeatherWind HumidityBarometerVisibility
2:52 PM
Mon, Sep 26
69 °FSunny.7 mph31%30.13 "Hg10 mi
1:52 PM67 °FSunny.5 mph32%30.14 "Hg10 mi
12:52 PM65 °FSunny.3 mph34%30.16 "Hg10 mi
11:52 AM64 °FSunny.No wind37%30.18 "Hg10 mi
10:52 AM61 °FSunny.3 mph38%30.21 "Hg10 mi
9:52 AM58 °FSunny.No wind51%30.22 "Hg10 mi
7:52 AM40 °FSunny.No wind93%30.22 "Hg10 mi
7:01 AM31 °FIce fog.No wind96%30.22 "Hg0 mi
5:52 AM32 °FIce fog.No wind92%30.20 "Hg1 mi
4:52 AM32 °FClear.No wind96%30.18 "Hg9 mi
3:59 AM33 °FFog.No wind96%30.19 "Hg2 mi
3:03 AM34 °FFog.No wind97%30.20 "Hg6 mi
2:52 AM35 °FFog.No wind88%30.20 "Hg2 mi
1:52 AM35 °FClear.No wind92%30.20 "Hg10 mi
12:52 AM36 °FClear.No wind97%30.19 "Hg10 mi
11:52 PM
Sun, Sep 25
37 °FClear.No wind93%30.19 "Hg10 mi
10:52 PM38 °FClear.No wind97%30.19 "Hg10 mi
9:52 PM40 °FClear.3 mph89%30.17 "Hg10 mi
8:52 PM42 °FClear.No wind85%30.15 "Hg10 mi
7:52 PM46 °FClear.No wind77%30.13 "Hg10 mi
6:52 PM51 °FClear.No wind63%30.10 "Hg10 mi
5:52 PM63 °FSunny.5 mph30%30.08 "Hg10 mi
4:52 PM66 °FSunny.7 mph27%30.06 "Hg10 mi
Weather by CustomWeather, © 2016

See weather overviewHow to use our weather pages